Location: Kershaw
(34.5481°N, 80.5823°W)
Time: 20:17:52
(UTC+00:00)

deb Explorer IX - Pass Details

Date: 06 October 2022
Orbit: 533 x 1057 km, 38.8° (Epoch: 06 December)

Event Time Altitude Azimuth Distance (km) Brightness Sun altitude
Exits shadow 08:42:04 17° 114° (ESE) 1,530 ? -33.1°
Drops below altitude 10° 08:43:52 10° 94° (E) 1,996 ? -32.7°
Sets 08:46:50 0° 79° (ENE) 3,004 ? -32.2°
